EW8051 Weather Reports


time (UTC)temp
C
wind
direction
speed
KPH
gust
KPH
rain 1hr
cm
rain 24hr
cm
rain mn
cm
humidity
%
barometer
mb
20260508151134 10 327 11.3 19.3 0.00 0.00 0.00 75 1021.1
20260508150252 10 0 8.0 9.7 0.00 0.00 0.00 76 1021.1
20260508144645 10 0 9.7 14.5 0.00 0.00 0.00 75 1021.1
20260508144303 10 180 8.0 9.7 0.00 0.00 0.00 75 1021.0
20260508140710 10 349 16.1 20.9 0.00 0.00 0.00 74 1021.4
20260508135533 10 0 16.1 27.4 0.00 0.00 0.00 74 1021.2
20260508134326 11 25 12.9 20.9 0.00 0.00 0.00 74 1021.2
20260508133047 11 315 11.3 16.1 0.00 0.00 0.00 73 1021.1
20260508132129 11 315 8.0 12.9 0.00 0.00 0.00 72 1021.0
20260508131206 11 315 14.5 17.7 0.00 0.00 0.00 72 1020.6
20260508124557 11 315 12.9 20.9 0.00 0.00 0.00 73 1020.6
20260508123846 11 0 11.3 12.9 0.00 0.00 0.00 74 1020.5
20260508122909 11 90 11.3 16.1 0.00 0.00 0.00 73 1020.3
20260508121533 11 336 12.9 17.7 0.00 0.00 0.00 74 1020.4
20260508120559 11 0 17.7 24.1 0.00 0.00 0.00 75 1020.4
20260508115758 11 315 12.9 19.3 0.00 0.00 0.00 75 1020.4
20260508114557 12 315 14.5 20.9 0.00 0.00 0.00 74 1020.2
20260508112158 12 315 11.3 20.9 0.00 0.00 0.00 71 1020.0
20260508111309 12 315 16.1 22.5 0.00 0.00 0.00 70 1019.8
20260508110507 12 315 16.1 22.5 0.00 0.00 0.00 70 1019.7
20260508105619 13 315 17.7 24.1 0.00 0.00 0.00 70 1019.5
20260508104333 13 315 14.5 22.5 0.00 0.00 0.00 70 1019.5
20260508094557 13 315 12.9 17.7 0.00 0.00 0.00 71 1018.9
20260508091729 13 315 12.9 20.9 0.00 0.00 0.00 70 1018.7
20260508090645 14 315 12.9 17.7 0.00 0.00 0.00 70 1018.6
20260508082958 15 315 8.0 14.5 0.00 0.00 0.00 71 1017.9
20260508082155 14 315 9.7 12.9 0.00 0.00 0.00 71 1018.0
20260508074557 14 315 4.8 8.0 0.00 0.00 0.00 73 1017.3
20260508074019 14 315 8.0 11.3 0.00 0.00 0.00 73 1017.2
20260508070958 15 315 9.7 14.5 0.00 0.00 0.00 73 1016.6
20260508065757 15 315 3.2 12.9 0.00 0.00 0.00 75 1016.5
20260508064422 14 315 6.4 14.5 0.00 0.00 0.00 79 1016.5
20260508063133 14 315 11.3 16.1 0.00 0.00 0.00 78 1016.5
20260508055504 15 315 12.9 14.5 0.00 0.00 0.00 76 1015.7
20260508054019 15 315 6.4 9.7 0.00 0.00 0.00 76 1015.5
20260508051534 15 315 14.5 17.7 0.00 0.00 0.00 75 1015.2
20260508044735 16 315 4.8 8.0 0.00 0.00 0.00 72 1014.6
20260508042558 17 315 11.3 14.5 0.00 0.00 0.00 71 1014.3
20260508041533 17 315 8.0 12.9 0.00 0.00 0.00 71 1014.1
20260508040822 17 315 8.0 11.3 0.00 0.00 0.00 70 1014.1
20260508032822 17 315 1.6 3.2 0.00 0.00 0.00 70 1013.5
20260508032108 17 315 6.4 9.7 0.00 0.00 0.00 70 1013.4
20260508024306 17 315 3.2 6.4 0.00 0.00 0.00 67 1013.0
20260508022647 17 315 11.3 14.5 0.00 0.00 0.00 62 1013.1
20260508012734 17 315 4.8 6.4 0.00 0.00 0.00 68 1012.5
20260508010022 17 315 1.6 3.2 0.00 0.00 0.00 64 1012.6
20260508005046 17 315 6.4 8.0 0.00 0.00 0.00 64 1012.6
20260508000603 17 315 6.4 11.3 0.00 0.00 0.00 65 1012.3
20260507235534 17 315 9.7 12.9 0.00 0.00 0.00 65 1012.1
20260507234713 17 315 11.3 16.1 0.00 0.00 0.00 63 1012.0
20260507233536 18 315 16.1 22.5 0.00 0.00 0.00 61 1011.9
20260507233220 18 315 9.7 16.1 0.00 0.00 0.00 57 1011.5
20260507232108 18 315 1.6 6.4 0.00 0.00 0.00 56 1011.4
20260507230601 18 315 4.8 6.4 0.00 0.00 0.00 57 1011.2
20260507225554 18 315 3.2 4.8 0.00 0.00 0.00 60 1011.0
20260507224619 18 315 0.0 3.2 0.00 0.00 0.00 59 1010.8
20260507223622 18 0.0 0.0 0.00 0.00 0.00 58 1010.8
20260507222828 18 0.0 3.2 0.00 0.00 0.00 57 1010.8
20260507221555 18 0.0 0.0 0.00 0.00 0.00 56 1010.9
20260507220734 19 315 0.0 3.2 0.00 0.00 0.00 54 1010.8
20260507215623 19 0.0 1.6 0.00 0.00 0.00 53 1010.8
20260507214558 20 315 0.0 3.2 0.00 0.00 0.00 53 1010.9
20260507213534 19 315 3.2 8.0 0.00 0.00 0.00 53 1011.1
20260507212558 19 315 0.0 3.2 0.00 0.00 0.00 53 1010.8
20260507211554 19 315 3.2 4.8 0.00 0.00 0.00 54 1010.8
20260507210559 20 315 3.2 3.2 0.00 0.00 0.00 53 1010.9
20260507210022 20 315 1.6 3.2 0.00 0.00 0.00 53 1010.9
20260507205046 20 315 0.0 3.2 0.00 0.00 0.00 53 1011.0
20260507204508 20 315 0.0 3.2 0.00 0.00 0.00 53 1011.1
20260507203136 20 315 0.0 3.2 0.00 0.00 0.00 52 1011.1
20260507202023 20 315 1.6 3.2 0.00 0.00 0.00 52 1011.1
20260507201047 20 315 3.2 6.4 0.00 0.00 0.00 52 1011.2
20260507200022 20 315 0.0 3.2 0.00 0.00 0.00 52 1011.3
20260507195046 20 315 0.0 3.2 0.00 0.00 0.00 52 1011.2
20260507194023 20 0.0 0.0 0.00 0.00 0.00 51 1011.2
20260507193046 20 0.0 0.0 0.00 0.00 0.00 50 1011.1
20260507191539 21 315 0.0 3.2 0.00 0.00 0.00 49 1011.1
20260507190618 21 315 0.0 3.2 0.00 0.00 0.00 47 1011.1
20260507185535 21 315 1.6 4.8 0.00 0.00 0.00 46 1011.0
20260507184559 21 315 0.0 3.2 0.00 0.00 0.00 45 1011.1
20260507183630 22 0.0 0.0 0.00 0.00 0.00 44 1011.1
20260507182558 22 315 0.0 3.2 0.00 0.00 0.00 43 1011.1
20260507181537 22 315 1.6 3.2 0.00 0.00 0.00 40 1011.2
20260507180647 22 315 4.8 8.0 0.00 0.00 0.00 40 1011.1
20260507175713 23 315 3.2 6.4 0.00 0.00 0.00 40 1011.1
20260507174355 23 315 12.9 17.7 0.00 0.00 0.00 38 1011.5
20260507173135 23 315 6.4 16.1 0.00 0.00 0.00 37 1010.9
20260507172103 23 315 9.7 17.7 0.00 0.00 0.00 36 1011.0
20260507171112 24 315 8.0 11.3 0.00 0.00 0.00 35 1011.3
20260507170023 24 315 1.6 6.4 0.00 0.00 0.00 32 1011.5
20260507165047 25 315 1.6 8.0 0.00 0.00 0.00 31 1011.4
20260507164023 25 315 1.6 4.8 0.00 0.00 0.00 30 1010.8
20260507163134 25 315 1.6 4.8 0.00 0.00 0.00 30 1010.7
20260507162022 25 315 4.8 6.4 0.00 0.00 0.00 29 1010.6
20260507161223 25 315 3.2 8.0 0.00 0.00 0.00 28 1010.5
20260507160026 26 315 4.8 8.0 0.00 0.00 0.00 27 1010.5
20260507155107 26 315 4.8 8.0 0.00 0.00 0.00 26 1010.4
20260507154028 26 315 1.6 6.4 0.00 0.00 0.00 26 1010.5
20260507153048 26 315 1.6 4.8 0.00 0.00 0.00 26 1010.5
20260507152111 27 315 6.4 11.3 0.00 0.00 0.00 23 1010.7